TimeEST,TemperatureF,Dew PointF,Humidity,Sea Level PressureIn,VisibilityMPH,Wind Direction,Wind SpeedMPH,Gust SpeedMPH,PrecipitationIn,Events,Conditions,WindDirDegrees,DateUTC
12:54 AM,48.0,44.1,86,30.14,10.0,Calm,Calm,-,0.03,Rain,Light Rain,0,2014-01-02 05:54:00
1:27 AM,48.2,44.6,87,30.12,10.0,Calm,Calm,-,0.00,Rain,Light Rain,0,2014-01-02 06:27:00
1:54 AM,46.9,43.0,86,30.12,10.0,Calm,Calm,-,0.00,,Overcast,0,2014-01-02 06:54:00
2:54 AM,46.9,42.1,83,30.11,10.0,North,3.5,-,0.01,Rain,Light Rain,360,2014-01-02 07:54:00
3:54 AM,46.0,43.0,89,30.09,8.0,Calm,Calm,-,0.05,Rain,Light Rain,0,2014-01-02 08:54:00
4:13 AM,46.4,44.6,93,30.08,7.0,Calm,Calm,-,0.02,Rain,Light Rain,0,2014-01-02 09:13:00
4:54 AM,46.9,44.1,90,30.06,7.0,Calm,Calm,-,0.04,Rain,Light Rain,0,2014-01-02 09:54:00
5:54 AM,46.9,45.0,93,30.02,10.0,Calm,Calm,-,0.01,,Overcast,0,2014-01-02 10:54:00
6:54 AM,46.9,45.0,93,30.02,7.0,Calm,Calm,-,0.00,Rain,Light Rain,0,2014-01-02 11:54:00
7:54 AM,48.0,46.0,93,30.01,4.0,Calm,Calm,-,0.03,Rain,Light Rain,0,2014-01-02 12:54:00
8:54 AM,48.0,46.0,93,29.97,4.0,ESE,5.8,-,0.02,Rain,Light Rain,120,2014-01-02 13:54:00
9:54 AM,48.9,46.9,93,29.97,7.0,Calm,Calm,-,0.01,Rain,Light Rain,0,2014-01-02 14:54:00
10:14 AM,48.2,46.4,93,29.97,9.0,Calm,Calm,-,0.00,Rain,Light Rain,0,2014-01-02 15:14:00
10:51 AM,50.0,46.4,87,29.93,10.0,Calm,Calm,-,0.01,Rain,Light Rain,0,2014-01-02 15:51:00
10:54 AM,50.0,48.0,93,29.93,10.0,Calm,Calm,-,0.01,Rain,Light Rain,0,2014-01-02 15:54:00
11:35 AM,50.0,48.2,94,29.89,8.0,North,3.5,-,0.00,Rain,Light Rain,10,2014-01-02 16:35:00
11:54 AM,50.0,48.0,93,29.89,9.0,Calm,Calm,-,0.01,Rain,Light Rain,0,2014-01-02 16:54:00
12:54 PM,51.1,48.0,89,29.83,9.0,Calm,Calm,-,0.01,Rain,Light Rain,0,2014-01-02 17:54:00
1:54 PM,52.0,48.9,89,29.79,10.0,Calm,Calm,-,0.01,Rain,Light Rain,0,2014-01-02 18:54:00
2:54 PM,52.0,50.0,93,29.77,7.0,South,3.5,-,0.05,Rain,Light Rain,190,2014-01-02 19:54:00
3:54 PM,52.0,50.0,93,29.74,3.0,Calm,Calm,-,0.07,Rain,Rain,0,2014-01-02 20:54:00
4:24 PM,51.8,50.0,94,29.72,6.0,Calm,Calm,-,0.03,Rain,Light Rain,0,2014-01-02 21:24:00
4:54 PM,52.0,50.0,93,29.69,5.0,Calm,Calm,-,0.06,Rain,Light Rain,0,2014-01-02 21:54:00
5:10 PM,51.8,50.0,94,29.69,6.0,Calm,Calm,-,0.02,Rain,Rain,0,2014-01-02 22:10:00
5:41 PM,51.8,50.0,94,29.66,4.0,Calm,Calm,-,0.05,Rain,Light Rain,0,2014-01-02 22:41:00
5:54 PM,52.0,50.0,93,29.66,5.0,Calm,Calm,-,0.05,,Overcast,0,2014-01-02 22:54:00
6:08 PM,51.8,50.0,94,29.66,5.0,Calm,Calm,-,N/A,,Overcast,0,2014-01-02 23:08:00
6:54 PM,52.0,50.0,93,29.62,2.5,Calm,Calm,-,0.01,,Overcast,0,2014-01-02 23:54:00
7:05 PM,51.8,50.0,94,29.61,4.0,Calm,Calm,-,N/A,,Overcast,0,2014-01-03 00:05:00
7:54 PM,52.0,50.0,93,29.58,2.0,Calm,Calm,-,0.01,Rain,Light Rain,0,2014-01-03 00:54:00
8:36 PM,51.8,50.0,94,29.56,2.5,WNW,8.1,-,0.07,Rain,Rain,300,2014-01-03 01:36:00
8:54 PM,52.0,50.0,93,29.57,2.0,NW,10.4,-,0.16,Rain,Heavy Rain,310,2014-01-03 01:54:00
9:21 PM,53.6,51.8,94,29.58,3.0,West,10.4,-,0.07,Rain,Light Rain,270,2014-01-03 02:21:00
9:54 PM,53.1,51.1,93,29.57,4.0,West,9.2,-,0.09,Rain,Light Rain,280,2014-01-03 02:54:00
10:54 PM,53.1,50.0,89,29.54,8.0,West,6.9,-,0.08,Rain,Light Rain,260,2014-01-03 03:54:00
11:29 PM,53.6,50.0,88,29.56,10.0,West,11.5,19.6,0.01,,Overcast,280,2014-01-03 04:29:00
11:36 PM,53.6,48.2,82,29.56,10.0,WNW,11.5,-,0.01,,Overcast,290,2014-01-03 04:36:00
11:54 PM,53.1,48.0,83,29.58,9.0,West,16.1,23.0,0.01,,Overcast,280,2014-01-03 04:54:00